Weather Roundup
Issued by NWS Chicago, IL

Home | Current Version | Previous Version | Text Only | Print | Product List | Glossary On
Versions: 1 2 3 4 5 6 7 8 9 10 11 12 13 14 15 16 17 18 19 20 21 22 23 24 25 26 27 28 29 30 31 32 33 34 35 36 37 38 39 40 41 42 43 44 45 46 47 48 49 50
000
NZUS59 KLOT 061310
HRRLOT

CHICAGO AREA WEATHER ROUNDUP
NATIONAL WEATHER SERVICE CHICAGO/ROMEOVILLE IL
700 AM CST FRI MAR 06 2015

NOTE: "FAIR" INDICATES FEW OR NO CLOUDS BELOW 12,000 FEET WITH NO
SIGNIFICANT WEATHER AND/OR OBSTRUCTIONS TO VISIBILITY.

* THESE STATIONS ARE NOT UNDER NWS QUALITY CONTROL. THEY ALSO MAY NOT
  REPORT WEATHER SUCH AS PRECIPITATION OR FOG.

ILZ005-006-012>014-019>023-061400-
NORTHEAST ILLINOIS

CITY           SKY/WX    TMP DP  RH WIND       PRES   REMARKS
OHARE          MOCLDY     6  -1  73 SW12      30.42F WCI  -9
MIDWAY         MOCLDY     7   0  73 S9        30.45F WCI  -7
AURORA         PTCLDY     1  -5  75 S7        30.43F WCI -12
LANSING*       PTCLDY     1  -4  78 S6        30.47F WCI -10
JOLIET*        PTCLDY     2  -1  85 CALM      30.46F
WAUKEGAN       PTCLDY     3  -2  79 SW10      30.39F WCI -12
DUPAGE AIRPORT PTCLDY     2  -4  76 S8        30.41F WCI -12
WHEELING       PTCLDY     7  -2  66 S9        30.44F WCI  -7
KANKAKEE*      PTCLDY     0  -4  80 S7        30.49S WCI -13
MORRIS*        PTCLDY    -2  -5  86 S6        30.45F WCI -14
LEWIS AIRPORT* PTCLDY     2  -2  83 S8        30.45F WCI -11
NORTHERLY IS     N/A      9   0  67 SW9         N/A  WCI  -4
$$

WIZ051-052-058>065-066-070>072-061400-
SOUTHEAST WISCONSIN

CITY           SKY/WX    TMP DP  RH WIND       PRES   REMARKS
MILWAUKEE      MOCLDY     2  -7  66 SW14      30.37F WCI -16
KENOSHA*         N/A      3  -4  72 SW12      30.38F WCI -13
RACINE*        PTCLDY     3  -5  69 SW10      30.40S WCI -12
BURLINGTON     PTCLDY   -10 -15  80 SW3       30.37F
WAUKESHA       PTCLDY     0  -6  78 SW6       30.35F WCI -12
WEST BEND      PTCLDY     5  -4  66 SW10      30.31F WCI -10
$$

INZ001>003-010>013-019-020-061400-
NORTHWEST INDIANA

CITY           SKY/WX    TMP DP  RH WIND       PRES   REMARKS
GARY*          PTCLDY     7  -4  61 S7        30.47F WCI  -5
MICHIGAN CITY* NOT AVBL
RENSSELAER*    NOT AVBL
VALPARAISO     PTCLDY     0  -5  79 S5        30.46F WCI -10
$$

LMZ740>746-061400-
SOUTHERN LAKE MICHIGAN

STATION/POSITION TIME  SKY/WX   TEMP WIND        PRES    VSBY
                                AIR  DIR/SP/G
                 (UTC)          (F)  (DEG/KT/KT) (MB)    (MI)
HARRISON CRIB    1300             9  210/ 19/ 22   N/A
BURNHAM HARBOR   1300             9  190/  5/ 12   N/A
CALUMET HARBOR   1300             7  190/  8/ 11 1029.9F
BURNS HARBOR     NOT AVBL
MICHIGAN CITY    1300             4  170/  9/ 11   N/A
$$

ABBREVIATIONS USED IN REMARKS
   TC - TEMPERATURE IN CELSIUS
  WCI - WIND CHILL INDEX
   HX - HEAT INDEX
  VSB - VISIBILITY
$$


USA.gov is the U.S. government's official web portal to all federal, state and local government web resources and services.